This demonstration page uses our WeatherBlox Daily Observations layout. Learn more.

Left ArrowRight Arrow

Hourly Observations for April 19, 2018

Temp ( °F °C ) Dew Point ( °F °C ) Humidity (%) Winds ( mph kmh ) Pressure ( in mb ) Visibility ( mi km ) Precip ( " mm )
12:56 am 00:56 Clear 32 0 28 -2.2 85 85 NNW 7 11 30.36 1028 10 16 0.00 0.00
1:56 am 01:56 Clear 31 -0.6 28 -2.2 89 89 WNW 7 11 30.36 1028 10 16 0.00 0.00
2:56 am 02:56 Clear 31 -0.6 28 -2.2 89 89 NW 7 11 30.36 1028 10 16 0.00 0.00
3:56 am 03:56 Clear 29 -1.7 27 -2.8 92 92 NNW 8 13 30.37 1029 10 16 0.00 0.00
4:56 am 04:56 Clear 26 -3.3 24 -4.4 92 92 NW 6 9 30.40 1030 10 16 0.00 0.00
5:56 am 05:56 Clear 27 -2.8 25 -3.9 92 92 WNW 8 13 30.45 1031 10 16 0.00 0.00
6:56 am 06:56 Sunny 26 -3.3 23 -5 88 88 NW 7 11 30.47 1032 10 16 0.00 0.00
7:56 am 07:56 Sunny 30 -1.1 28 -2.2 92 92 NW 7 11 30.48 1032 10 16 0.00 0.00
8:56 am 08:56 Sunny 36 2.2 31 -0.6 82 82 NNW 8 13 30.50 1033 10 16 0.00 0.00
9:56 am 09:56 Sunny 40 4.4 32 0 73 73 NNW 5 7 30.51 1033 10 16 0.00 0.00
10:56 am 10:56 Sunny 43 6.1 26 -3.3 51 51 NNE 7 11 30.51 1033 10 16 0.00 0.00
11:56 am 11:56 Sunny 45 7.2 27 -2.8 49 49 Calm 30.51 1033 10 16 0.00 0.00
12:56 pm 12:56 Sunny 49 9.4 28 -2.2 44 44 Calm 30.49 1033 10 16 0.00 0.00
1:56 pm 13:56 Sunny 51 10.6 28 -2.2 41 41 SSE 7 11 30.46 1031 10 16 0.00 0.00
2:56 pm 14:56 Sunny 53 11.7 27 -2.8 37 37 ESE 9 15 30.42 1030 10 16 0.00 0.00
3:56 pm 15:56 Sunny 55 12.8 28 -2.2 35 35 E 10 17 30.39 1029 10 16 0.00 0.00
4:56 pm 16:56 Sunny 56 13.3 27 -2.8 33 33 ESE 12 19 30.37 1028 10 16 0.00 0.00
5:56 pm 17:56 Sunny 56 13.3 26 -3.3 32 32 ESE 15 24 30.35 1028 10 16 0.00 0.00
6:56 pm 18:56 Sunny 54 12.2 25 -3.9 33 33 ESE 15 24 30.35 1028 10 16 0.00 0.00
7:56 pm 19:56 Sunny 52 11.1 27 -2.8 38 38 ESE 10 17 30.34 1027 10 16 0.00 0.00
8:56 pm 20:56 Clear 44 6.7 27 -2.8 51 51 ESE 8 13 30.35 1028 10 16 0.00 0.00
9:56 pm 21:56 Clear 43 6.1 27 -2.8 53 53 SE 9 15 30.36 1028 10 16 0.00 0.00
10:56 pm 22:56 Clear 42 5.6 27 -2.8 55 55 SE 9 15 30.36 1028 10 16 0.00 0.00
11:56 pm 23:56 Clear 42 5.6 28 -2.2 58 58 SE 10 17 30.35 1028 10 16 0.00 0.00

Powered by AerisWeather